BIRD002 LLBG-LLHZ

Flight info

Callsign BIRD002
Flight time 0h -2m
Altitude 1200
Route PARDS GNYAM
Aircraft C750/M-SBDE3FGHRWXY/S

Departure

Time 2026-05-04 14:08
Airport Ben Gurion International Airport (LLBG)

Arrival

Time 2026-05-04 14:05
Airport Herzliya Airport (LLHZ)
Time Latitude Longitude Altitude Speed Heading
2026-05-04 13:54 31.99512 34.89832 116 ft 0 kts 244°
2026-05-04 14:02 31.99513 34.89828 89 ft 1 kts 279°
2026-05-04 14:02 31.99522 34.89831 115 ft 6 kts 33°
2026-05-04 14:02 31.99598 34.89921 116 ft 20 kts 337°
2026-05-04 14:03 31.99788 34.89820 116 ft 34 kts 332°
2026-05-04 14:03 31.99989 34.89695 116 ft 31 kts 334°
2026-05-04 14:03 32.00178 34.89585 116 ft 30 kts 330°
2026-05-04 14:03 32.00296 34.89393 116 ft 28 kts 302°
2026-05-04 14:04 32.00378 34.89237 115 ft 0 kts 301°
2026-05-04 14:04 32.00427 34.89137 115 ft 38 kts 301°
2026-05-04 14:04 32.00591 34.89001 116 ft 27 kts 34°
2026-05-04 14:05 32.00934 34.89227 115 ft 33 kts 28°
2026-05-04 14:05 32.01132 34.89356 115 ft 32 kts 29°
2026-05-04 14:05 32.01324 34.89477 115 ft 31 kts 27°
2026-05-04 14:06 32.01507 34.89595 116 ft 30 kts 30°
2026-05-04 14:06 32.01652 34.89687 114 ft 11 kts 27°
2026-05-04 14:06 32.01660 34.89691 115 ft 0 kts 27°
2026-05-04 14:06 32.01665 34.89695 115 ft 6 kts 27°
2026-05-04 14:07 32.01779 34.89768 115 ft 30 kts 14°
2026-05-04 14:07 32.01830 34.89649 114 ft 20 kts 261°
2026-05-04 14:07 32.01747 34.89116 119 ft 114 kts 260°
2026-05-04 14:07 32.01763 34.88070 532 ft 139 kts 286°
2026-05-04 14:08 32.02480 34.87300 1186 ft 148 kts 328°
2026-05-04 14:08 32.03515 34.87161 1287 ft 151 kts 357°
2026-05-04 14:08 32.04581 34.87312 1275 ft 156 kts 357°
2026-05-04 14:08 32.05668 34.87430 1222 ft 156 kts 356°
2026-05-04 14:09 32.07791 34.87547 1221 ft 147 kts 347°
2026-05-04 14:09 32.08794 34.87482 1224 ft 141 kts 347°
2026-05-04 14:10 32.10799 34.87473 1140 ft 151 kts
2026-05-04 14:10 32.11847 34.87799 1139 ft 157 kts
2026-05-04 14:10 32.12894 34.88122 1201 ft 153 kts
2026-05-04 14:10 32.13928 34.88382 1219 ft 156 kts
2026-05-04 14:11 32.14629 34.88670 1207 ft 158 kts 13°
2026-05-04 14:11 32.16623 34.89445 1292 ft 146 kts
2026-05-04 14:11 32.17577 34.89721 1367 ft 133 kts 355°
2026-05-04 14:12 32.18343 34.89376 1436 ft 109 kts 298°
2026-05-04 14:12 32.18243 34.88503 1182 ft 147 kts 221°
2026-05-04 14:12 32.16725 34.87483 1217 ft 119 kts 274°
2026-05-04 14:13 32.17053 34.86550 1008 ft 128 kts 290°
2026-05-04 14:13 32.17414 34.85528 541 ft 139 kts 287°
2026-05-04 14:13 32.17709 34.84574 350 ft 111 kts 287°
2026-05-04 14:13 32.17954 34.83727 128 ft 106 kts 282°
2026-05-04 14:14 32.18141 34.83077 97 ft 37 kts 292°
2026-05-04 14:14 32.18134 34.83007 98 ft 16 kts 108°
2026-05-04 14:14 32.18077 34.83185 100 ft 25 kts 109°
2026-05-04 14:15 32.17983 34.83498 111 ft 16 kts 110°
2026-05-04 14:15 32.17905 34.83746 124 ft 24 kts 111°
2026-05-04 14:16 32.18019 34.83490 111 ft 98 kts 288°
2026-05-04 14:16 32.18320 34.82493 365 ft 146 kts 285°
2026-05-04 14:17 32.20171 34.81880 1214 ft 180 kts 33°
2026-05-04 14:17 32.20653 34.83374 1266 ft 208 kts 97°
2026-05-04 14:17 32.19403 34.85805 1197 ft 153 kts 176°
2026-05-04 14:18 32.18489 34.85654 974 ft 120 kts 210°
2026-05-04 14:18 32.17823 34.84138 241 ft 118 kts 282°
2026-05-04 14:19 32.18178 34.82876 97 ft 19 kts 296°
2026-05-04 14:19 32.18171 34.82842 96 ft 2 kts 191°
2026-05-04 14:19 32.18171 34.82850 95 ft 7 kts 107°
2026-05-04 14:19 32.18066 34.83218 102 ft 56 kts 109°
2026-05-04 14:20 32.17959 34.83574 113 ft 43 kts 109°
2026-05-04 14:20 32.17889 34.83856 123 ft 24 kts 54°
2026-05-04 14:20 32.17939 34.83779 122 ft 46 kts 289°
2026-05-04 14:21 32.18751 34.82181 904 ft 151 kts 322°
2026-05-04 14:21 32.19871 34.82051 1326 ft 170 kts
2026-05-04 14:21 32.20838 34.82825 1292 ft 180 kts 50°
2026-05-04 14:21 32.20967 34.84299 1200 ft 192 kts 108°
2026-05-04 14:22 32.20350 34.85592 1214 ft 170 kts 144°
2026-05-04 14:22 32.19386 34.85949 1065 ft 129 kts 203°
2026-05-04 14:22 32.18623 34.85591 753 ft 114 kts 213°
2026-05-04 14:22 32.17930 34.85219 577 ft 112 kts 228°
2026-05-04 14:23 32.18033 34.83447 109 ft 86 kts 289°
2026-05-04 14:23 32.18129 34.83120 99 ft 29 kts 288°
2026-05-04 14:23 32.18143 34.82959 96 ft 5 kts 172°
2026-05-04 14:24 32.18132 34.83011 98 ft 30 kts 111°
2026-05-04 14:24 32.18027 34.83350 106 ft 46 kts 109°
2026-05-04 14:24 32.17934 34.83634 120 ft 10 kts 136°
2026-05-04 14:24 32.17915 34.83642 121 ft 1 kts 192°
2026-05-04 14:25 32.17919 34.83643 121 ft 0 kts 188°
2026-05-04 14:25 32.17917 34.83643 121 ft 0 kts 188°